Location: El Hornillo
(40.2499°N, 5.1036°W)
Time: 22:43:34
(UTC+00:00)

Iridium 82 - Pass Details

Date: 05 August 2024
Orbit: 442 x 601 km, 86.4° (Epoch: 17 September)

Event Time Altitude Azimuth Distance (km) Brightness Sun altitude
Exits shadow 21:03:49 20° 188° (S) 1,097 6.0 -16.2°
Maximum altitude 21:06:03 78° 272° (W) 459 4.4 -16.5°
Drops below altitude 10° 21:09:28 10° 360° (N) 1,580 7.7 -17.0°
Sets 21:11:33 0° 1° (N) 2,468 8.7 -17.3°
